Date String (YYYY-MM-DD hh:mm:ss) UTC,Instrument flags,Ambient pressure (hPa),Sample flow (lpm),Bypass flow (lpm),Sample temperature (°C),Ambient temperature (°C),ASC tube jacket temperature (°C),LED temperature (°C),Box temperature (°C),Sample RH (%),Span deviation,Mass concentration (μg/m³),Mass concentration (μg/m³),Mass concentration (μg/m³)
DateTimeUTC,F1_M11,P_M11,Q1_M11,Q2_M11,T1_M11,T2_M11,T3_M11,T4_M11,T5_M11,U1_M11,ZSPAN_M11,X2_M11,X0_M11,X1_M11
2023-05-14 05:00:00,,0840.1,4.99,0.00,29.9,28.2,00.0,38.3,31.4,25.5,0000.0,0003.89,0004.39,0003.78
2023-05-14 05:01:00,,0840.1,5.00,0.00,29.9,28.2,00.0,38.3,31.4,25.5,0000.0,0003.92,0005.04,0003.80
2023-05-14 05:02:00,,0840.1,5.01,0.00,29.9,28.2,00.0,38.3,31.4,25.7,0000.0,0003.94,0005.23,0003.81
2023-05-14 05:03:00,,0840.1,5.00,0.00,29.9,28.2,00.0,38.3,31.4,25.8,0000.0,0003.93,0005.21,0003.81
2023-05-14 05:04:00,,0840.1,5.00,0.00,29.8,28.2,00.0,38.3,31.4,25.9,-000.4,0003.92,0005.20,0003.81
2023-05-14 05:05:00,,0840.1,4.99,0.00,29.8,28.2,00.0,38.3,31.3,25.9,-001.5,0003.90,0005.17,0003.81
2023-05-14 05:06:00,,0840.1,5.01,0.00,29.8,28.2,00.0,38.3,31.3,25.8,-001.3,0003.89,0005.14,0003.79
2023-05-14 05:07:00,,0840.1,5.01,0.00,29.8,28.2,00.0,38.3,31.3,25.8,-001.3,0003.85,0005.07,0003.76
2023-05-14 05:08:00,,0840.0,4.98,0.00,29.8,28.2,00.0,38.2,31.3,25.8,-001.3,0003.82,0005.02,0003.72
2023-05-14 05:09:00,,0840.0,4.99,0.00,29.8,28.2,00.0,38.2,31.3,25.9,-000.7,0003.77,0004.93,0003.66
2023-05-14 05:10:00,,0840.0,5.02,0.00,29.8,28.2,00.0,38.2,31.3,25.8,0000.0,0003.71,0004.88,0003.59
2023-05-14 05:11:00,,0840.0,5.00,0.00,29.8,28.1,00.0,38.2,31.3,25.8,0000.0,0003.63,0004.71,0003.52
2023-05-14 05:12:00,,0840.1,5.00,0.00,29.8,28.1,00.0,38.2,31.3,25.8,0000.0,0003.55,0003.91,0003.45
2023-05-14 05:13:00,,0840.1,4.99,0.00,29.8,28.1,00.0,38.2,31.3,25.8,0000.0,0003.48,0003.70,0003.38
2023-05-14 05:14:00,,0840.1,5.01,0.00,29.8,28.1,00.0,38.2,31.3,25.8,0000.0,0003.41,0003.59,0003.31
2023-05-14 05:15:00,,0840.1,5.00,0.00,29.8,28.1,00.0,38.2,31.3,25.7,0000.0,0003.34,0003.45,0003.24
2023-05-14 05:16:00,,0840.1,4.99,0.00,29.8,28.1,00.0,38.2,31.3,25.8,0000.0,0003.28,0003.34,0003.17
2023-05-14 05:17:00,,0840.1,4.99,0.00,29.8,28.1,00.0,38.2,31.3,25.7,0000.0,0003.24,0003.31,0003.12
2023-05-14 05:18:00,,0840.1,5.00,0.00,29.8,28.1,00.0,38.2,31.3,25.7,0000.0,0003.19,0003.23,0003.07
2023-05-14 05:19:00,,0840.1,5.02,0.00,29.8,28.1,00.0,38.2,31.3,25.8,0000.0,0003.16,0003.20,0003.02
2023-05-14 05:20:00,,0840.1,5.00,0.00,29.8,28.1,00.0,38.2,31.3,25.8,0000.0,0003.12,0003.10,0002.97
2023-05-14 05:21:00,,0840.1,5.00,0.00,29.8,28.1,00.0,38.2,31.3,25.7,0000.0,0003.10,0003.03,0002.95
2023-05-14 05:22:00,,0840.1,4.99,0.00,29.8,28.2,00.0,38.2,31.3,25.7,0000.0,0003.10,0003.05,0002.94
2023-05-14 05:23:00,,0840.1,5.01,0.00,29.8,28.2,00.0,38.2,31.3,25.7,0000.0,0003.10,0003.05,0002.94
2023-05-14 05:24:00,,0840.1,5.01,0.00,29.8,28.1,00.0,38.2,31.3,25.7,0000.0,0003.07,0003.01,0002.93
2023-05-14 05:25:00,,0840.1,4.99,0.00,29.8,28.1,00.0,38.2,31.3,25.7,0000.0,0003.06,0002.97,0002.92
2023-05-14 05:26:00,,0840.1,5.00,0.00,29.7,28.1,00.0,38.2,31.3,25.7,0000.0,0003.06,0003.01,0002.91
2023-05-14 05:27:00,,0840.1,5.01,0.00,29.7,28.1,00.0,38.2,31.3,25.7,0000.0,0003.07,0003.08,0002.90
2023-05-14 05:28:00,,0840.1,5.00,0.00,29.7,28.1,00.0,38.2,31.3,25.7,0000.0,0003.04,0003.05,0002.88
2023-05-14 05:29:00,,0840.1,4.99,0.00,29.7,28.1,00.0,38.2,31.3,25.8,0000.0,0003.03,0003.04,0002.87
2023-05-14 05:30:00,,0840.1,4.99,0.00,29.7,28.1,00.0,38.2,31.3,25.7,0000.0,0003.04,0003.12,0002.85
2023-05-14 05:31:00,,0840.1,5.01,0.00,29.7,28.1,00.0,38.1,31.3,25.7,0000.0,0003.08,0003.25,0002.86
2023-05-14 05:32:00,,0840.0,5.01,0.00,29.7,28.1,00.0,38.1,31.3,25.7,0000.0,0003.10,0003.32,0002.86
2023-05-14 05:33:00,,0840.1,5.00,0.00,29.8,28.1,00.0,38.2,31.3,25.7,0000.0,0003.10,0003.36,0002.86
2023-05-14 05:34:00,,0840.0,5.00,0.00,29.7,28.1,00.0,38.1,31.3,25.7,0000.0,0003.13,0003.51,0002.89
2023-05-14 05:35:00,,0840.0,4.99,0.00,29.7,28.1,00.0,38.1,31.3,25.7,0000.0,0003.15,0003.59,0002.91
2023-05-14 05:36:00,,0840.0,5.00,0.00,29.7,28.1,00.0,38.1,31.3,25.7,0000.0,0003.15,0003.64,0002.93
2023-05-14 05:37:00,,0840.0,5.02,0.00,29.7,28.1,00.0,38.1,31.3,25.7,0000.0,0003.15,0003.64,0002.95
2023-05-14 05:38:00,,0840.0,4.99,0.00,29.7,28.1,00.0,38.1,31.3,25.7,0000.0,0003.16,0003.66,0002.96
2023-05-14 05:39:00,,0840.0,4.99,0.00,29.7,28.1,00.0,38.1,31.3,25.7,0000.0,0003.17,0004.53,0002.96
2023-05-14 05:40:00,,0840.0,5.00,0.00,29.7,28.1,00.0,38.1,31.2,25.7,0000.0,0003.17,0004.69,0002.96
2023-05-14 05:41:00,,0839.9,5.00,0.00,29.7,28.1,00.0,38.1,31.3,25.7,0000.0,0003.16,0004.62,0002.98
2023-05-14 05:42:00,,0840.0,5.01,0.00,29.7,28.1,00.0,38.1,31.2,25.7,0000.6,0003.15,0004.56,0002.99
2023-05-14 05:43:00,,0839.9,4.99,0.00,29.7,28.1,00.0,38.1,31.2,25.7,0000.4,0003.18,0005.64,0003.00
2023-05-14 05:44:00,,0839.9,5.00,0.00,29.7,28.0,00.0,38.1,31.2,25.7,0000.6,0003.18,0005.82,0003.01
2023-05-14 05:45:00,,0839.9,5.01,0.00,29.7,28.0,00.0,38.1,31.2,25.7,0001.4,0003.16,0005.75,0003.01
2023-05-14 05:46:00,,0839.9,5.00,0.00,29.7,28.0,00.0,38.1,31.2,25.7,0001.6,0003.18,0005.89,0003.03
2023-05-14 05:47:00,,0839.9,5.00,0.00,29.7,28.0,00.0,38.1,31.2,25.7,0001.1,0003.20,0007.07,0003.07
2023-05-14 05:48:00,,0839.9,5.00,0.00,29.7,28.0,00.0,38.1,31.2,25.7,0001.1,0003.23,0007.20,0003.11
2023-05-14 05:49:00,,0839.9,5.00,0.00,29.7,28.0,00.0,38.1,31.2,25.7,0000.8,0003.26,0007.28,0003.15
2023-05-14 05:50:00,,0839.9,5.01,0.00,29.7,28.0,00.0,38.1,31.1,25.7,0000.6,0003.31,0006.59,0003.21
2023-05-14 05:51:00,,0839.9,5.00,0.00,29.7,28.0,00.0,38.1,31.1,25.7,0000.0,0003.38,0006.76,0003.27
2023-05-14 05:52:00,,0839.9,4.99,0.00,29.6,28.0,00.0,38.1,31.1,25.7,0000.1,0003.46,0007.04,0003.33
2023-05-14 05:53:00,,0839.9,4.99,0.00,29.6,28.0,00.0,38.1,31.1,25.8,0000.3,0003.52,0007.24,0003.38
2023-05-14 05:54:00,,0839.9,5.01,0.00,29.6,27.9,00.0,38.1,31.1,25.8,-000.1,0003.54,0006.33,0003.42
2023-05-14 05:55:00,,0839.9,5.02,0.00,29.6,27.9,00.0,38.0,31.1,25.8,-000.2,0003.59,0006.39,0003.46
2023-05-14 05:56:00,,0839.9,4.99,0.00,29.6,27.9,00.0,38.0,31.1,25.8,-000.5,0003.63,0006.53,0003.50
2023-05-14 05:57:00,,0839.9,4.99,0.00,29.6,27.9,00.0,38.0,31.1,25.8,-000.7,0003.67,0006.68,0003.52
2023-05-14 05:58:00,,0839.9,5.01,0.00,29.6,27.9,00.0,38.0,31.1,25.8,-000.6,0003.71,0005.83,0003.54
2023-05-14 05:59:00,,0839.9,5.01,0.00,29.6,27.9,00.0,38.0,31.1,25.9,-000.9,0003.75,0005.79,0003.58
